Regional Weather Roundup
Issued by NWS

Home | Current Version | Previous Version | Graphics & Text | Print | Product List | Glossary On
Versions: 1 2 3 4 5 6 7 8 9 10 11 12 13 14 15 16 17 18 19 20 21 22 23 24 25 26 27 28 29 30 31 32 33 34 35 36 37 38 39 40 41 42 43 44 45 46 47 48 49 50
000
ASUS43 KOAX 200710
RWRNE

WEATHER ROUNDUP FOR NEBRASKA
NATIONAL WEATHER SERVICE OMAHA NE
100 AM CST MON NOV 20 2017

NOTES: SATELLITE DATA IS BEING USED TO AUGMENT CLOUD COVER ABOVE
       12000 FEET.
       "FAIR" INDICATES FEW OR NO CLOUDS BELOW 12,000 FEET WITH NO
       SIGNIFICANT WEATHER AND/OR OBSTRUCTIONS TO VISIBILITY.


NEZ001>004-019>022-054>056-200800-
NEBRASKA PANHANDLE

CITY           SKY/WX    TMP DP  RH WIND       PRES   REMARKS
SCOTTSBLUFF    CLOUDY    42  10  27 W16       29.83F
ALLIANCE       CLOUDY    27  12  53 W8        29.79F WCI  19
CHADRON        CLOUDY    27  14  58 W3        29.77F
GORDON         FAIR      35  14  41 W14       29.74F WCI  26
KIMBALL        CLOUDY    35   9  33 W14       29.87F WCI  26
SIDNEY         CLOUDY    33  11  39 W13       29.86F WCI  24
$$

NEZ057>060-069>072-079>082-200800-
SOUTHWEST NEBRASKA

CITY           SKY/WX    TMP DP  RH WIND       PRES   REMARKS
NORTH PLATTE   CLOUDY    25  20  81 CALM      29.82F
IMPERIAL       CLOUDY    30  18  60 W8        29.85F WCI  22
LEXINGTON      CLOUDY    35  24  65 NW6       29.83S WCI  29
MCCOOK         CLOUDY    37  22  54 SW7       29.84F WCI  32
OGALLALA       CLOUDY    24  19  82 W9        29.84F WCI  14
$$

NEZ005>010-023>029-035>040-094-200800-
NORTH CENTRAL NEBRASKA

CITY           SKY/WX    TMP DP  RH WIND       PRES   REMARKS
VALENTINE      CLOUDY    31  19  61 SW10      29.72F WCI  22
AINSWORTH      CLOUDY    37  19  48 W12       29.73F WCI  30
BROKEN BOW     CLOUDY    38  22  52 W6        29.79F WCI  33
O`NEILL        CLEAR     35  27  72 SW10      29.74F WCI  28
ORD            CLOUDY    36  25  64 SW10      29.77F WCI  28
THEDFORD       CLOUDY    40  20  45 W12       29.78S WCI  33
$$

NEZ041-046>049-061>064-073>077-083>087-200800-
SOUTH CENTRAL NEBRASKA

CITY           SKY/WX    TMP DP  RH WIND       PRES   REMARKS
GRAND ISLAND   CLEAR     41  27  57 SW16      29.83F
AURORA         CLEAR     33  24  67 SW10      29.84S WCI  25
HASTINGS       CLEAR     38  23  55 S7        29.85F WCI  33
HEBRON         CLEAR     42  23  46 SW14      29.88F
HOLDREGE       CLOUDY    38  27  63 SW9       29.84F WCI  32
KEARNEY        CLOUDY    34  25  69 SW9       29.84F WCI  27
YORK           CLEAR     34  25  69 CALM      29.85F
$$

NEZ011>018-030>034-042>045-200800-
NORTHEAST NEBRASKA

CITY           SKY/WX    TMP DP  RH WIND       PRES   REMARKS
NORFOLK        CLEAR     36  24  62 CALM      29.78F
ALBION         CLOUDY    37  25  61 S6        29.80F WCI  33
BLAIR          CLOUDY    36  26  65 S10       29.85F WCI  29
COLUMBUS       CLOUDY    28  22  78 CALM      29.84F
FREMONT        CLOUDY    39  25  56 S6        29.85F
TEKAMAH        CLOUDY    35  25  66 S13       29.83F WCI  26
WAYNE          CLOUDY    37  23  56 S8        29.78F WCI  31
$$

NEZ050>053-065>068-078-088>093-200800-
SOUTHEAST NEBRASKA

CITY           SKY/WX    TMP DP  RH WIND       PRES   REMARKS
LINCOLN        CLEAR     35  24  64 SE6       29.88F WCI  30
OMAHA EPPLEY   CLOUDY    35  25  66 SE12      29.88F WCI  27
BEATRICE       PTCLDY    41  26  54 S8        29.89F
FALLS CITY     CLOUDY    43  25  49 S13       29.93F
NEBRASKA CITY  PTCLDY    38  28  64 SW12      29.89F WCI  31
PLATTSMOUTH    CLOUDY    38  27  63 S13       29.88F WCI  30
$$

NEZ044-045-051>053-067-200800-
OMAHA AREA

CITY           SKY/WX    TMP DP  RH WIND       PRES   REMARKS
OMAHA EPPLEY   CLOUDY    35  25  66 SE12      29.88F WCI  27
BLAIR          CLOUDY    36  26  65 S10       29.85F WCI  29
FREMONT        CLOUDY    39  25  56 S6        29.85F
MILLARD        CLEAR     41  26  56 SE5       29.87F
OFFUTT AFB     CLEAR     27  22  82 E6        29.87F WCI  21
PLATTSMOUTH    CLOUDY    38  27  63 S13       29.88F WCI  30
WAHOO          FAIR      34  25  67 S7        29.85F WCI  28
$$



USA.gov is the U.S. government's official web portal to all federal, state and local government web resources and services.